COSMOS 2251 DEB

Satellite information

Favourite Embed

Satellite Type and Status

DEBRISIN ORBIT

Key statistics

Satellite COSMOS 2251 DEB at a glance.

Uptime

11650

Days in orbit

Revolutions

≈ 13.9

Per day

Orbit

LEO

Low Earth Orbit

Inclination

74.1

Latest

Satellite identification and parameters

Extended collection of information and parameters for COSMOS 2251 DEB.

Object identification

Identified? True

Debris? True

Object name: COSMOS 2251 DEB

International designator: 1993-036AE

Object number (NORAD): 33789

Object ID (CCSDS): 33789

Country: COMMONWEALTH OF INDEPENDENT STATES (CIS)

Current information (Y/N): Y

RCS size: MEDIUM

Orbital parameters

Period: 103.715 minutes

Inclination: 74.0621 deg

SMA: 7312.316 km

Apoapsis: 1111.717 km

Periapsis: 756.644 km

RAAN: 98.6442 deg

Eccentricy: 0.0242791

Argument of periapsis: 264.4851 deg

Mean anomaly: 123.5017 deg

Mean motion: 13.88418337 rev/day

Mean motion (dot): 0.00000786 rev/day2

B* drag term: 0.00053439 1/REarth

Two-line elements (TLE)

Creation date: May 7, 2025, 10:26 p.m.

Reference frame: TEME

Reference center: EARTH

Epoch: May 7, 2025, 9:58 p.m. UTC

TLE line 0: 0 COSMOS 2251 DEB

TLE line 1: 1 33789U 93036AE 25127.91590402 .00000786 00000-0 53439-3 0 9996

TLE line 2: 2 33789 74.0621 98.6442 0242791 264.4851 123.5017 13.88418337820656

Live tracking on map

Real-time ground track for satellite COSMOS 2251 DEB.

In-orbit conjunctions

A list of the most updated potential collisions computed for object COSMOS 2251 DEB.

Target Orbit TCA Probability of collision Miss distance Type
CZ-6A DEB LEO 2024-12-13 03:50:07 0.000208142 306.0 (m) DEBRIS
TRAAC LEO 2024-11-11 15:06:37 0.0002768419 427.0 (m) PAYLOAD
CZ-2C R/B SSO 2024-10-05 08:31:29 0.0002186027 46.0 (m) ROCKET BODY
MOS 1B (MOMO 1B) SSO 2024-09-10 11:29:35 0.0002470665 247.0 (m) PAYLOAD

Associated space launch

Military communications satellite. Destroyed in a collision with Iridium 33.

COSMOS 2251 DEB was lifted into orbit during the mission ‘Kosmos-3M | Strela-2M 51’, on board a Kosmos-3M space rocket.

The launch took place on June 16, 1993, 4:17 a.m. from 132/1 (132L).

For more information about the launch, click the button.

Launch to space Kosmos-3M | Strela-2M 51
Kosmos-3M | Strela-2M 51

Agency: N/A

Status: Launch Successful

Launch date: June 16, 1993, 4:17 a.m. UTC

Rocket: Kosmos-3M

Launch pad: 132/1 (132L)

Location: Plesetsk Cosmodrome, Russian Federation

...

Latest news about this satellite

There are no fresh news available about this satellite. Check back as we update our databases every day.


Newsletter sign-up

Weekly statistics, charts and insights to help you stay on top of the space industry.